Starlink 31281

operational
NORAD ID: 59077 Int'l Des: 2024-041 Owner: SPXS Country: US Constellation: starlink
LEOCIRCULAR

Über Starlink 31281

Beschreibung wird geladen...

Live-Position

3D-Globus wird geladen...

Nächste Überflüge

Höhenverlauf

Altitude vs Time

uPlot chart will show altitude changes over time

Zweizeiliger Elementsatz

1 59077U 24041D 25304.34539594 .00000983 00000-0 45224-4 0 9996
2 59077 43.0029 320.8623 0000968 272.3086 87.7655 15.27588336 94541
Epoch: 31. Okt. 2025 • Age: 19 hours

Aktueller Status

Höhe 484.8 km
Geschwindigkeit 7.63 km/s
Subsatellitenpunkt 34.28°N, 88.11°W
Startdatum 29. Feb. 2024
Alter 1.6 years
Typ internet

Technische Details

Klassifizierung Payload
Masse 730.00 kg
Trockenmasse 700.00 kg
Gesamtmasse 730.00 kg
Länge 0.30 m
Durchmesser 4.10 m
Spannweite 29.00 m
Form Box + pan
Hersteller SPXS
Bus-Typ Starlink V2M
Phasenstatus In Orbit
Besitzer/Staat SPXS/US

Große Konstellationen

Loading constellations...